Location: Tr�vern
(48.0333°N, 4.6000°W)
Time: 08:35:38
(UTC+00:00)

BREEZE-M DEB (TANK) - Pass Details

Date: 14 July 2020
Orbit: 426 x 13239 km, 46.0° (Epoch: 04 August)

Event Time Altitude Azimuth Distance (km) Brightness Sun altitude
Rises 23:57:38 0° 239° (WSW) 8,856 8.7 -20.1°
Reaches altitude 10° 00:05:55 10° 237° (WSW) 5,892 7.7 -20.2°
Maximum altitude 00:18:10 53° 166° (SSE) 1,286 4.2 -20.3°
Drops below altitude 10° 00:22:15 10° 88° (E) 2,049 5.7 -20.3°
Sets 00:23:47 0° 82° (E) 2,704 6.4 -20.3°
